Location: Regona
(45.2000°N, 9.8167°E)
Time: 01:42:57
(UTC+00:00)

Meteor 1-28 Rocket - Pass Details

Date: 07 June 2020
Orbit: 503 x 523 km, 97.3° (Epoch: 06 July)

Event Time Altitude Azimuth Distance (km) Brightness Sun altitude
Exits shadow 02:40:33 - 182° (S) 2,354 6.1 -8.1°
Reaches altitude 10° 02:42:03 10° 187° (S) 1,737 5.4 -7.9°
Maximum altitude 02:45:39 45° 261° (W) 714 3.5 -7.4°
Drops below altitude 10° 02:49:16 10° 335° (NNW) 1,741 6.1 -7.0°
Sets 02:51:26 0° 342° (NNW) 2,629 7.1 -6.7°
